Weather History for Gainesville, FL

Change the Weather History Date:

Friday, June 14, 2013

  Actual Average Record
Temperature  
Mean Temperature 82 °F 80 °F  
Max Temperature 91 °F 90 °F 102 °F (1977)
Min Temperature 73 °F 69 °F 59 °F (1980)
Degree Days  
Heating Degree Days 0 0  
Month to date heating degree days 0 0  
Since 1 June heating degree days 0 0  
Since 1 July heating degree days 1040 1218  
Cooling Degree Days 17 15  
Month to date cooling degree days 223 194  
Year to date cooling degree days 755 704  
Since 1 June cooling degree days 223 194  
Growing Degree Days 32 (Base 50)    
Moisture  
Dew Point 73 °F    
Average Humidity 76    
Maximum Humidity 93    
Minimum Humidity 59    
Precipitation  
Precipitation 0.38 in 0.25 in 3.25 in (1902)
Month to date precipitation 4.79 2.87  
Year to date precipitation 15.79 18.86  
Snow  
Snow 0.00 in 0.00 in 0.00 in ()
Month to date snowfall 0.0 0.0  
Since 1 June snowfall 0.0 0.0  
Since 1 July snowfall 0.0 0.0  
Snow Depth 0.00 in    
Sea Level Pressure  
Sea Level Pressure 29.89 in    
Wind  
Wind Speed 9 mph (WSW)    
Max Wind Speed 28 mph    
Max Gust Speed 37 mph    
Visibility 8 miles    
Events Rain , Thunderstorm    
T = Trace of Precipitation, MM = Missing Value Source: NWS Daily Summary

Daily Weather History Graph

Daily Weather History Graph

Search for Another Location

Airport:

Trip Planner

Search our weather history database for the weather conditions in past years. The results will help you decide how hot, cold, wet, or windy it might be!

Date:

Astronomy

Jun. 14, 2013 Rise Set
Actual Time 6:28 AM EDT 8:30 PM EDT
Civil Twilight 6:00 AM EDT 8:58 PM EDT
Nautical Twilight 5:27 AM EDT 9:31 PM EDT
Astronomical Twilight 4:52 AM EDT 10:06 PM EDT
Moon 11:41 AM EDT (6/14) No Moon Set
Length of Visible Light 14h 57m
Length of Day
14h 02m
Waxing Crescent, 30% of the Moon is Illuminated
Jun 14
Waxing Crescent
Jun 16
First Quarter
Jun 23
Full
Jun 30
Last Quarter
Jul 8
New

Hourly Weather History & Observations

Time (EDT) Temp. Heat Index Dew Point Humidity Pressure Visibility Wind Dir Wind Speed Gust Speed Precip Events Conditions
12:53 AM 78.1 °F - 73.9 °F 87% 29.91 in 10.0 mi WSW 5.8 mph - N/A   Clear
1:48 AM 78.8 °F - 73.4 °F 83% 29.91 in 10.0 mi SW 5.8 mph - N/A   Mostly Cloudy
1:53 AM 78.1 °F - 73.9 °F 87% 29.89 in 10.0 mi SW 6.9 mph - N/A   Mostly Cloudy
2:53 AM 77.0 °F - 73.9 °F 90% 29.87 in 9.0 mi SW 6.9 mph - N/A   Overcast
3:03 AM 77.0 °F - 73.4 °F 89% 29.88 in 9.0 mi SW 6.9 mph - N/A   Overcast
3:30 AM 78.8 °F - 73.4 °F 83% 29.87 in 10.0 mi SW 9.2 mph - N/A   Partly Cloudy
3:53 AM 78.1 °F - 73.9 °F 87% 29.84 in 10.0 mi SW 10.4 mph - N/A   Clear
4:53 AM 78.1 °F - 73.9 °F 87% 29.86 in 10.0 mi SW 9.2 mph - N/A   Partly Cloudy
5:53 AM 78.1 °F - 73.0 °F 84% 29.85 in 10.0 mi WSW 10.4 mph - N/A   Clear
6:53 AM 77.0 °F - 73.0 °F 88% 29.88 in 9.0 mi West 6.9 mph - N/A   Mostly Cloudy
7:53 AM 79.0 °F - 73.0 °F 82% 29.89 in 9.0 mi WSW 8.1 mph - N/A   Overcast
8:53 AM 80.1 °F 84.5 °F 73.9 °F 81% 29.90 in 10.0 mi WSW 10.4 mph - N/A   Mostly Cloudy
9:53 AM 82.9 °F 89.4 °F 73.9 °F 74% 29.89 in 10.0 mi West 10.4 mph - N/A   Overcast
10:06 AM 84.2 °F 90.9 °F 73.4 °F 70% 29.89 in 10.0 mi WSW 10.4 mph - N/A   Overcast
10:53 AM 87.1 °F 96.3 °F 75.0 °F 67% 29.89 in 10.0 mi SW 10.4 mph - N/A   Overcast
11:22 AM 77.0 °F - 71.6 °F 83% 29.94 in 7.0 mi West 19.6 mph 35.7 mph 0.00 in Rain , Thunderstorm Light Thunderstorms and Rain
11:29 AM 73.4 °F - 69.8 °F 88% 29.93 in 1.8 mi West 27.6 mph 36.8 mph 0.01 in Rain , Thunderstorm Heavy Thunderstorms and Rain
11:39 AM 73.4 °F - 69.8 °F 88% 29.93 in 2.0 mi SW 12.7 mph 35.7 mph 0.10 in Rain , Thunderstorm Light Thunderstorms and Rain
11:46 AM 75.2 °F - 69.8 °F 83% 29.91 in 9.0 mi SW 8.1 mph 17.3 mph 0.10 in Rain , Thunderstorm Light Thunderstorms and Rain
11:53 AM 75.0 °F - 70.0 °F 84% 29.91 in 10.0 mi SW 6.9 mph - 0.10 in   Mostly Cloudy
12:53 PM 82.9 °F 90.8 °F 75.9 °F 79% 29.91 in 10.0 mi SW 9.2 mph - 0.00 in   Clear
1:53 PM 88.0 °F 100.2 °F 77.0 °F 70% 29.87 in 10.0 mi WSW 11.5 mph - N/A   Scattered Clouds
2:53 PM 90.0 °F 97.9 °F 73.0 °F 57% 29.86 in 10.0 mi West 12.7 mph 17.3 mph N/A   Partly Cloudy
3:53 PM 89.1 °F 97.0 °F 73.0 °F 59% 29.86 in 10.0 mi WSW 16.1 mph 21.9 mph N/A   Partly Cloudy
4:53 PM 84.0 °F 91.2 °F 73.9 °F 72% 29.84 in 10.0 mi WSW 12.7 mph 21.9 mph N/A   Clear
5:53 PM 84.9 °F 94.1 °F 75.9 °F 74% 29.85 in 9.0 mi SW 8.1 mph - N/A   Mostly Cloudy
6:53 PM 86.0 °F 95.1 °F 75.0 °F 70% 29.85 in 9.0 mi WSW 9.2 mph - N/A   Mostly Cloudy
7:34 PM 84.2 °F 92.3 °F 75.2 °F 74% 29.86 in 9.0 mi WSW 11.5 mph - 0.00 in Rain , Thunderstorm Light Thunderstorms and Rain
7:53 PM 84.9 °F 92.1 °F 73.9 °F 69% 29.86 in 10.0 mi SW 8.1 mph - 0.00 in Thunderstorm Thunderstorm
8:41 PM 77.0 °F - 73.4 °F 89% 29.92 in 3.0 mi North 11.5 mph 21.9 mph 0.12 in Rain , Thunderstorm Heavy Thunderstorms and Rain
8:50 PM 75.2 °F - 73.4 °F 94% 29.91 in 2.5 mi NNW 9.2 mph - 0.21 in Rain , Thunderstorm Heavy Thunderstorms and Rain
8:53 PM 75.9 °F - 73.0 °F 91% 29.89 in 2.5 mi Variable 6.9 mph - 0.23 in Rain , Thunderstorm Heavy Thunderstorms and Rain
9:02 PM 75.2 °F - 73.4 °F 94% 29.85 in 4.0 mi West 21.9 mph - 0.04 in Rain , Thunderstorm Thunderstorms and Rain
9:09 PM 75.2 °F - 73.4 °F 94% 29.83 in 6.0 mi West 23.0 mph - 0.05 in Rain Light Rain
9:53 PM 75.9 °F - 73.0 °F 91% 29.91 in 10.0 mi ENE 5.8 mph - 0.05 in   Clear
10:53 PM 75.0 °F - 72.0 °F 90% 29.93 in 10.0 mi Calm Calm - N/A   Clear
11:53 PM 73.9 °F - 71.1 °F 91% 29.94 in 8.0 mi NE 5.8 mph - N/A   Partly Cloudy